Current weather by "City, St" or "zip code"  
 

Current Conditions: Rexburg, Rexburg-Madison County Airport, ID

Light Rain


47.0 F

Last Updated on Oct 24 2020, 10:53 am MDT
Humidity: 41%
Wind Speed: SW 17.3 G 23.0 mph
Barometer 29.78 in
Dewpoint: 24.1 F
Visibility: 10.00 mi
Precip: Trace
Heat Index: NA
Wind Chill: 40 F
Current conditions at:

Rexburg, Rexburg-Madison County Airport, ID (KRXE)

Lat: 43.83167 Lon: 111.80611

Local Radar Image active severe weather and emergency alerts image image weather storm and storm spotter reports image weather observation monitoring service image
Local
Radar
Active
Alerts
Storm Reports Obs
Monitoring

Sign-up For Email & Text Message Weather Alert Notification Services



Advertise Here

Observation History for Rexburg, Rexburg-Madison County Airport, ID


Time Wind
(mph)
Vis
(mi)
Weather Precip (in) Temperature (F) Relative
Humidity
Wind
Chill
(F)
Heat
Index
(F)
Pressure
Air Dwpt altimeter
(in)
sea level
(mb)
Rmks
10:53 am MDT SW 17.3 G 23.0 10.00 Light Rain Trace 47.0 24.1 41% 40 NA 29.78 1007.7
9:53 am MDT SW 13.8 G 21.9 10.00 Overcast -- 47.0 26.1 44% 41 NA 29.79 1008.0
8:53 am MDT S 20.7 G 27.6 10.00 Overcast and Breezy -- 45.0 26.1 48% 37 NA 29.78 1007.6
7:53 am MDT S 19.6 G 27.6 10.00 Overcast -- 44.0 27.0 51% 36 NA 29.78 1008.0
6:53 am MDT S 15.0 10.00 Overcast -- 48.0 16.0 28% 42 NA 29.78 1007.6
5:53 am MDT SW 17.3 G 24.2 10.00 Overcast -- 48.0 10.9 22% 42 NA 29.79 1007.8
4:53 am MDT SW 12.7 10.00 Overcast -- 47.0 10.9 23% 41 NA 29.81 1008.3
3:53 am MDT S 15.0 G 23.0 10.00 Overcast -- 47.0 9.0 21% 41 NA 29.82 1008.7
2:53 am MDT SW 16.1 G 20.7 10.00 Overcast -- 47.0 8.1 20% 41 NA 29.83 1009.5
1:53 am MDT S 13.8 10.00 Overcast -- 44.0 10.0 25% 37 NA 29.84 1010.1
12:53 am MDT S 18.4 G 28.8 10.00 Overcast -- 46.0 9.0 22% 39 NA 29.86 1010.5
11:53 pm MDT S 13.8 10.00 Overcast -- 44.0 8.1 23% 37 NA 29.89 1012.4
10:53 pm MDT S 12.7 10.00 Overcast -- 44.0 8.1 23% 38 NA 29.90 1013.6
9:53 pm MDT S 12.7 10.00 Mostly Cloudy -- 43.0 10.0 26% 36 NA 29.90 1014.2
8:53 pm MDT SW 12.7 G 21.9 10.00 Overcast -- 44.0 10.0 25% 38 NA 29.94 1016.2
7:53 pm MDT S 10.4 10.00 Overcast -- 43.0 9.0 25% 37 NA 29.95 1016.6
6:53 pm MDT SW 6.9 10.00 Fair -- 44.0 8.1 23% 40 NA 29.97 1017.3
5:53 pm MDT SW 11.5 10.00 Fair -- 45.0 7.0 21% 39 NA 29.99 1018.0
4:53 pm MDT SW 11.5 10.00 Fair -- 46.0 5.0 18% 41 NA 30.03 1019.2
3:53 pm MDT SW 15.0 G 23.0 10.00 Fair -- 46.0 5.0 18% 40 NA 30.07 1020.4
2:53 pm MDT SW 16.1 G 23.0 10.00 Fair -- 45.0 8.1 22% 38 NA 30.10 1021.6
1:53 pm MDT SW 10.4 G 20.7 10.00 Fair -- 44.0 10.9 26% 38 NA 30.14 1023.1
12:53 pm MDT SW 8.1 10.00 Fair -- 42.0 8.1 24% 37 NA 30.18 1024.5

Regional Weather Observation


Idaho Falls Regional Airport, ID (KIDA)

Mostly Cloudy and Windy
46.0 F

Driggs, Driggs-Reed Memorial Airport, ID (KDIJ)

Unknown Precip
37.0 F

West Yellowstone, MT (KWYS)

Overcast
25.0 F

Jackson, Jackson Hole Airport, WY (KJAC)

Light Snow Fog/Mist
34.0 F

Yellowstone Lake, WY (KP60)

NULL
30.0 F

Pocatello, Pocatello Regional Airport, ID (KPIH)

Light Rain and Breezy
42.0 F